Regional Weather Roundup
Issued by NWS Wakefield, VA

Home | Current Version | Previous Version | Graphics & Text | Print | Product List | Glossary On
Versions: 1 2 3 4 5 6 7 8 9 10 11 12 13 14 15 16 17 18 19 20 21 22 23 24 25 26 27 28 29 30 31 32 33 34 35 36 37 38 39 40 41 42 43 44 45 46 47 48 49 50
000
ASUS41 KAKQ 050014
RWRAKQ

REGIONAL WEATHER ROUNDUP
NATIONAL WEATHER SERVICE WAKEFIELD VA
800 PM EDT MON MAY 04 2015

Note: "fair" indicates few or no clouds below 12,000 feet with no
significant weather and/or obstructions to visibility. * = Denotes
station may not report precipitation (e.g., rain,snow,etc.),
thunder or fog.

VAZ042-051-052>054-056-050100-
NORTHERN VIRGINIA

CITY           SKY/WX    TMP DP  RH WIND       PRES   REMARKS
WASH NATIONAL  PTCLDY    76  56  49 S10       30.15S
DULLES         MOCLDY    76  50  40 S7        30.15R
FORT BELVOIR   CLEAR     77  52  41 SE5       30.16R
QUANTICO       CLEAR     72  58  61 S9        30.17R
FREDERICKSBRG* CLEAR     80  52  38 S8        30.16R
STAFFORD*      CLEAR     76  46  34 S6        30.20S
WARRENTON      CLEAR     77  54  45 S3        30.16R
CULPEPER*      NOT AVBL
MANASSAS*      CLEAR     77  52  41 S6        30.15S
LEESBURG*      CLEAR     79  54  41 S15       30.16R
WINCHESTER     PTCLDY    77  41  27 S5        30.15R
FRONT ROYAL*   FAIR      75  50  41 CALM      30.14R
LURAY*         FAIR      77  50  38 SW5       30.16R
$$

VAZ048-049-060>072-079>083-050100-
CENTRAL AND SOUTH CENTRAL VIRGINIA

CITY           SKY/WX    TMP DP  RH WIND       PRES   REMARKS
RICHMOND       PTCLDY    75  52  44 S9        30.20R
CHESTERFIELD*  FAIR      75  48  38 S7        30.22R
PETERSBURG*    CLEAR     76  49  37 S5        30.22R
HANOVER        CLEAR     77  51  40 S8        30.21R
TAPPAHANNOCK*  CLEAR     77  45  31 S5        30.20S
QUINTON*       FAIR      77  53  43 S3        30.20S
CHARLOTTSVILLE CLEAR     75  51  43 S10       30.17R
GORDONSVILLE*  FAIR      74  54  48 S6        30.16S
ORANGE*        CLEAR     77  52  41 CALM      30.18S
LOUISA*        CLEAR     77  52  41 S3        30.17R
BUMPASS*       FAIR      76  52  43 SE6       30.18R
FARMVILLE*     CLEAR     75  53  46 S6        30.19R
CREWE*         FAIR      74  52  45 S6        30.22R
FORT PICKETT*  FAIR      72  54  52 S12       30.22S
CHASE CITY*    FAIR      76  57  52 S3        30.23R
CLARKSVILLE*   FAIR      72  55  56 S5        30.23R
SOUTH HILL*    CLEAR     71  54  54 CALM      30.29R
LAWRENCEVILLE* FAIR      73  54  50 S3        30.23S
EMPORIA*       CLEAR     72  52  49 SE3       30.26R
$$

VAZ088>098-050100-
SOUTHEAST VIRGINIA

CITY           SKY/WX    TMP DP  RH WIND       PRES   REMARKS
NORFOLK        CLEAR     75  46  35 S10       30.24R
VIRGINIA BEACH PTCLDY    75  51  43 S7        30.25R
NORFOLK NAVAL  CLEAR     80  47  31 S6        30.25R
WEST POINT*    CLEAR     78  47  33 S5        30.23R
SALUDA*        FAIR      71  54  55 SE7       30.21S
NEWPORT NEWS   CLEAR     78  50  37 S9        30.23R
LANGLEY AFB    CLEAR     75  50  40 S9        30.22R
FORT EUSTIS    CLEAR     75  52  44 S7        30.21R
WILLIAMSBURG*  CLEAR     79  55  44 S7        30.24R
HR EXEC AP*    FAIR      75  46  35 S6        30.26R
FRANKLIN*      CLEAR     73  49  42 S6        30.25R
WAKEFIELD      CLEAR     73  53  49 S3        30.23S
$$

VAZ020-022-025-037-045-050100-
WEST CENTRAL AND SOUTHWEST VIRGINIA

CITY           SKY/WX    TMP DP  RH WIND       PRES   REMARKS
STAUNTON*      MOCLDY    75  48  38 S8        30.20R
WAYNESBORO*    FAIR      73  50  43 S6        30.20S
HOT SPRINGS VA CLOUDY    66  46  48 S9        30.30R
LYNCHBURG      CLEAR     70  52  52 S8        30.22S
DANVILLE       CLEAR     75  52  44 S3        30.22S
SOUTH BOSTON*  FAIR      74  51  44 CALM      30.22S
MARTINSVILLE   CLEAR     75  51  42 CALM      30.25S
ROANOKE        PTCLDY    75  50  41 S8        30.22S
BLACKSBURG     CLEAR     70  49  48 SW5       30.29R
DUBLIN*        PTCLDY    71  52  52 SW6       30.27R
MARION*        CLEAR     71  42  35 W6        30.30S
HILLSVILLE*    PTCLDY    68  51  53 S9        30.30S
RICHLANDS*     FAIR      71  40  32 SW6       30.28S
WISE*          CLEAR     70  41  35 SW6       30.30R
ABINGDON*      CLEAR     74  44  33 W3        30.26S
$$

MDZ021>025-VAZ099-100-050100-
SOUTHERN MARYLAND AND THE DELMARVA PENINSULA

CITY           SKY/WX    TMP DP  RH WIND       PRES   REMARKS
PATUXENT RIVER PTCLDY    72  49  44 S9        30.19R
BAY BRIDGE APT   N/A    N/A N/A N/A S10G16    30.18S
LEONARDTOWN    CLEAR     72  50  46 SE6       30.21R
DOVER          PTCLDY    75  46  35 SW3       30.16F
GEORGETOWN     CLEAR     73  49  42 S18G24    30.21S
EASTON         PTCLDY    75  54  46 S9        30.23R
CAMBRIDGE      CLEAR     73  48  40 S12G17    30.20R
SALISBURY      CLEAR     72  43  35 S9        30.22R
OCEAN CITY     CLEAR     64  55  72 S8        30.24R
WALLOPS ISLAND CLEAR     63  53  70 S14       30.25R
ACCOMACK*      CLEAR     68  52  56 S9        30.24S
$$

NCZ012>017-030>032-050100-
NORTH CENTRAL AND EASTERN NORTH CAROLINA

CITY           SKY/WX    TMP DP  RH WIND       PRES   REMARKS
ROANOKE RAPIDS FAIR      72  50  46 S3        30.24S
RALEIGH        PTCLDY    75  52  44 S6        30.26R
ELIZABETH CITY CLEAR     71  51  49 S10       30.27R
AHOSKIE*       CLEAR     71  50  47 CALM      30.26R
EDENTON*       CLEAR     72  55  54 S10       30.27S
CURRITUCK*     CLEAR     74  45  35 S5        30.28R
KILL DEVIL HLS CLEAR     69  54  57 S6        30.29R
MANTEO         CLEAR     67  58  71 S10       30.30S
CAPE HATTERAS  CLEAR     65  59  81 SW6       30.32S
TARBORO*       FAIR      74  51  43 S3        30.27R
GOLDSBORO      CLEAR     73  55  52 S9        30.26R
WASHINGTON     CLEAR     72  54  53 S7        30.29R
GREENVILLE     CLEAR     73  54  49 S10       30.29R
NEW BERN       CLEAR     71  49  45 S8        30.32R
WILMINGTON     CLEAR     70  50  49 S8        30.31S
$$

VAZ048-050100-
ELSEWHERE

CITY           SKY/WX    TMP DP  RH WIND       PRES   REMARKS
HARRISBURG PA  MOCLDY    80  46  30 S7        30.11R
BALTIMORE      PTCLDY    74  49  41 SE7       30.15R
ANNAPOLIS      CLEAR     69  51  52 S18       30.17R
ANDREWS AFB    CLEAR     74  51  43 S10       30.16R
PHILADELPHIA   PTCLDY    77  43  29 S8        30.16R
HENDERSON NC   CLEAR     72  49  44 S6        30.24S
GREENSBORO     PTCLDY    74  50  42 SW7       30.24R
ROCKY MOUNT    CLEAR     74  51  44 S5        30.26R
$$

VAZ100-050100-
MARINE

STATION/POSITION TIME  TEMP    WIND        PRES    WAVE   SWELL
                       AIR SEA DIR/SP/G            HT/PER HT/PER
                 (UTC) (F)     (DEG/KT/KT) (MB)    (FT/S) (FT/S)
BRANDYWINE LGT   2300          180/ 13/ 14   N/A
CAPE MAY NJ      2300   71 63  170/ 15/ 20 1022.3F
LEWES DE         2300   79 55  180/  4/  7 1022.6F
15NM E FENWICK I 2350   56 53              1023.5R   3/10
OCEAN-CITY-INLET 2300          210/ 12/ 14   N/A
WACHAPREAGUE VA  2300   68 69  210/ 10/ 16 1024.2F
THOMAS POINT MD  0000   68 59  170/ 24/ 26 1022.0S
GOOSES REEF MD   0000   65 60                N/A     1
COVE POINT MD    2300   67     190/ 18/ 20 1022.9F
SOLOMONS ISLAND  2300      63                N/A
BISHOPS HEAD MD  2300   71 71  160/ 15/ 18 1022.4F
PINEY POINT MD   2300          180/ 13/ 14   N/A
CAMBRIDGE MD     2300   77 62  170/  8/ 14 1022.2F
LEWISETTA VA     2300   76 67              1022.2S
RAPPAHANNOCK LGT 2300          150/ 18/ 19 1024.0F
YORK RVR RNG VA  2300   67     160/ 12/ 13 1022.8F
YORKTOWN VA      2300   78 63  180/  7/ 12 1023.0F
JAMESTOWN VA     0000   72 65  180/  4/  6 1022.6R
DOMINION TERM VA 2300   73     210/  9/ 10 1023.7F
KIPTOPEKE VA     2300      70  170/ 17/ 20   N/A
CHES BAY BRIDGE  2300   77 61  180/ 11/ 14 1023.3F
CAPE HENRY VA    2300   71     150/  7/ 10 1022.8F
CHESAPEAKE LGHT  2300   62     170/ 26/ 27 1024.2F
WILLOUBY STN VA  2300   78     200/ 13/ 16 1024.3F
S CRANEY ISL VA  2300          200/ 10/ 13 1023.7F
CAPE HENRY BUOY  2328      54                N/A     3/10   2/11
1ST LANDING BUOY 0000      61                N/A
CAPE CHARLES BUO 2326      57                N/A     3/11   2/11
OFFSHORE WE BUOY 2311      53                N/A     3/10   3/10
64NM E OF VA BCH 2350   65 62  180/ 12/ 14 1025.3F   3/10   3/10
DUCK PIER NC     2300   74 56  180/ 13/ 17 1024.1F
44056 DUCK FRF   2311      59                N/A     3/12   2/12
OREGON INLET NC  2300   69 70  180/ 11/ 13 1026.2S
HATTERAS NC      2300   71 67  210/  6/  9 1026.1F
DIAMOND SHLS NC  2350   74 78  210/ 10/ 14 1026.8R   4/12   3/12
CAPE LOOKOUT NC  0000   69     170/  8/  8 1026.5R
$$


USA.gov is the U.S. government's official web portal to all federal, state and local government web resources and services.